Location: San Gennaro Vesuviano
(40.8833°N, 14.5333°E)
Time: 22:03:04
(UTC+00:00)

FALCON 9 DEB - Pass Details

Date: 22 April 2021
Orbit: 364 x 384 km, 53.0° (Epoch: 10 May)

Event Time Altitude Azimuth Distance (km) Brightness Sun altitude
Rises 19:06:28 0° 238° (WSW) 2,191 7.1 -14.2°
Reaches altitude 10° 19:08:30 10° 242° (WSW) 1,347 6.0 -14.5°
Maximum altitude 19:11:28 61° 323° (NW) 417 3.3 -15.0°
Drops below altitude 10° 19:14:28 10° 45° (NE) 1,357 5.5 -15.5°
Enters shadow 19:15:11 - 47° (NE) 1,652 5.9 -15.6°
